| time (UTC) | temp F | wind direction | speed MPH | gust MPH | rain 1hr in | rain 24hr in | rain mn in | humidity % | barometer mb |
| 20260905021002 | 64 | 320 | 2.0 | 6.0 | 0.00 | 0.14 | 0.01 | 70 | 1012.6 |
| 20260905020502 | 64 | 316 | 1.0 | 4.0 | 0.00 | 0.14 | 0.01 | 69 | 1012.6 |
| 20260905020002 | 64 | 313 | 1.0 | 5.0 | 0.00 | 0.14 | 0.01 | 69 | 1012.6 |
| 20260905015502 | 65 | 285 | 2.0 | 5.0 | 0.00 | 0.14 | 0.01 | 68 | 1012.6 |
| 20260905015023 | 65 | 254 | 2.0 | 6.0 | 0.00 | 0.14 | 0.01 | 68 | 1012.6 |
| 20260905014523 | 65 | 289 | 2.0 | 9.0 | 0.00 | 0.14 | 0.01 | 66 | 1012.6 |
| 20260905014002 | 66 | 318 | 2.0 | 9.0 | 0.00 | 0.14 | 0.01 | 65 | 1012.6 |
| 20260905013502 | 66 | 300 | 2.0 | 11.0 | 0.00 | 0.14 | 0.01 | 64 | 1012.6 |
| 20260905013023 | 67 | 287 | 2.0 | 11.0 | 0.00 | 0.14 | 0.01 | 63 | 1012.6 |
| 20260905012502 | 67 | 296 | 2.0 | 7.0 | 0.00 | 0.14 | 0.01 | 64 | 1012.6 |
| 20260905012023 | 68 | 311 | 2.0 | 5.0 | 0.00 | 0.14 | 0.01 | 63 | 1012.6 |
| 20260905011502 | 68 | 314 | 3.0 | 8.0 | 0.00 | 0.14 | 0.01 | 63 | 1012.6 |
| 20260905011002 | 68 | 309 | 2.0 | 8.0 | 0.00 | 0.14 | 0.01 | 62 | 1012.6 |
| 20260905010502 | 68 | 294 | 2.0 | 6.0 | 0.00 | 0.14 | 0.01 | 60 | 1012.6 |
| 20260905010002 | 69 | 273 | 1.0 | 5.0 | 0.00 | 0.14 | 0.01 | 60 | 1012.6 |
| 20260905005502 | 69 | 309 | 2.0 | 11.0 | 0.00 | 0.14 | 0.01 | 60 | 1012.6 |
| 20260905005002 | 69 | 327 | 2.0 | 11.0 | 0.00 | 0.14 | 0.01 | 59 | 1012.6 |
| 20260905004502 | 69 | 321 | 2.0 | 7.0 | 0.00 | 0.14 | 0.01 | 59 | 1012.6 |
| 20260905004002 | 70 | 300 | 2.0 | 7.0 | 0.00 | 0.14 | 0.01 | 59 | 1012.6 |
| 20260905003502 | 70 | 295 | 2.0 | 6.0 | 0.00 | 0.14 | 0.01 | 59 | 1012.6 |
| 20260905003002 | 70 | 289 | 2.0 | 7.0 | 0.00 | 0.14 | 0.01 | 58 | 1012.6 |
| 20260905002502 | 70 | 261 | 2.0 | 7.0 | 0.00 | 0.14 | 0.01 | 58 | 1012.6 |
| 20260905002002 | 70 | 265 | 2.0 | 7.0 | 0.00 | 0.14 | 0.01 | 57 | 1012.6 |
| 20260905001502 | 70 | 306 | 2.0 | 7.0 | 0.00 | 0.14 | 0.01 | 56 | 1012.6 |
| 20260905001002 | 70 | 320 | 2.0 | 6.0 | 0.00 | 0.14 | 0.01 | 58 | 1012.6 |
| 20260905000523 | 70 | 326 | 2.0 | 9.0 | 0.00 | 0.14 | 0.01 | 58 | 1012.6 |
| 20260905000002 | 70 | 340 | 3.0 | 9.0 | 0.00 | 0.14 | 0.01 | 57 | 1012.6 |
| 20260904235502 | 71 | 335 | 2.0 | 8.0 | 0.00 | 0.14 | 0.01 | 56 | 1012.6 |
| 20260904235002 | 71 | 321 | 2.0 | 10.0 | 0.00 | 0.14 | 0.01 | 56 | 1012.6 |
| 20260904234523 | 71 | 335 | 2.0 | 10.0 | 0.00 | 0.14 | 0.01 | 57 | 1012.6 |
| 20260904234002 | 71 | 337 | 2.0 | 8.0 | 0.00 | 0.14 | 0.01 | 57 | 1012.6 |
| 20260904233502 | 71 | 321 | 2.0 | 10.0 | 0.00 | 0.14 | 0.01 | 57 | 1012.6 |
| 20260904233002 | 71 | 328 | 3.0 | 10.0 | 0.00 | 0.14 | 0.01 | 56 | 1012.6 |
| 20260904232502 | 71 | 338 | 3.0 | 10.0 | 0.00 | 0.14 | 0.01 | 55 | 1012.6 |
| 20260904232002 | 71 | 328 | 3.0 | 10.0 | 0.00 | 0.14 | 0.01 | 56 | 1012.6 |
| 20260904231502 | 71 | 312 | 3.0 | 8.0 | 0.00 | 0.14 | 0.01 | 57 | 1012.6 |
| 20260904231002 | 71 | 301 | 3.0 | 8.0 | 0.00 | 0.14 | 0.01 | 56 | 1012.6 |
| 20260904230502 | 71 | 303 | 2.0 | 9.0 | 0.00 | 0.14 | 0.01 | 57 | 1012.6 |
| 20260904230023 | 71 | 319 | 2.0 | 9.0 | 0.00 | 0.14 | 0.01 | 56 | 1012.6 |
| 20260904225502 | 71 | 323 | 2.0 | 8.0 | 0.00 | 0.14 | 0.01 | 56 | 1012.6 |
| 20260904225002 | 71 | 322 | 2.0 | 8.0 | 0.00 | 0.14 | 0.01 | 56 | 1012.6 |
| 20260904224523 | 71 | 332 | 3.0 | 9.0 | 0.00 | 0.14 | 0.01 | 56 | 1012.6 |
| 20260904224002 | 71 | 309 | 3.0 | 13.0 | 0.00 | 0.14 | 0.01 | 55 | 1012.6 |
| 20260904223502 | 71 | 295 | 2.0 | 13.0 | 0.00 | 0.14 | 0.01 | 55 | 1012.6 |
| 20260904223002 | 71 | 330 | 2.0 | 9.0 | 0.00 | 0.14 | 0.01 | 56 | 1012.6 |
| 20260904222502 | 71 | 335 | 2.0 | 9.0 | 0.00 | 0.14 | 0.01 | 55 | 1012.6 |
| 20260904222002 | 71 | 330 | 2.0 | 9.0 | 0.00 | 0.14 | 0.01 | 57 | 1012.6 |
| 20260904221502 | 71 | 320 | 2.0 | 9.0 | 0.00 | 0.14 | 0.01 | 56 | 1012.6 |
| 20260904221002 | 71 | 317 | 2.0 | 6.0 | 0.00 | 0.14 | 0.01 | 56 | 1012.6 |
| 20260904220523 | 71 | 313 | 2.0 | 6.0 | 0.00 | 0.14 | 0.01 | 56 | 1012.6 |
| 20260904220002 | 70 | 299 | 3.0 | 8.0 | 0.00 | 0.14 | 0.01 | 56 | 1012.6 |
| 20260904215502 | 70 | 323 | 3.0 | 10.0 | 0.00 | 0.14 | 0.01 | 57 | 1012.6 |
| 20260904215002 | 70 | 340 | 3.0 | 10.0 | 0.00 | 0.14 | 0.01 | 56 | 1012.6 |
| 20260904214502 | 70 | 323 | 2.0 | 10.0 | 0.00 | 0.14 | 0.01 | 56 | 1012.6 |
| 20260904214002 | 70 | 271 | 3.0 | 9.0 | 0.00 | 0.14 | 0.01 | 55 | 1012.6 |
| 20260904213502 | 70 | 250 | 3.0 | 9.0 | 0.00 | 0.14 | 0.01 | 53 | 1012.6 |
| 20260904213002 | 70 | 248 | 3.0 | 8.0 | 0.00 | 0.14 | 0.01 | 54 | 1012.6 |
| 20260904212502 | 70 | 241 | 2.0 | 8.0 | 0.00 | 0.14 | 0.01 | 54 | 1012.6 |
| 20260904212002 | 70 | 252 | 3.0 | 8.0 | 0.00 | 0.14 | 0.01 | 55 | 1012.6 |
| 20260904211502 | 69 | 255 | 3.0 | 8.0 | 0.00 | 0.14 | 0.01 | 52 | 1012.6 |
| 20260904211002 | 69 | 282 | 3.0 | 8.0 | 0.00 | 0.14 | 0.01 | 51 | 1012.6 |
| 20260904210502 | 69 | 320 | 3.0 | 8.0 | 0.00 | 0.14 | 0.01 | 54 | 1012.6 |
| 20260904210002 | 69 | 294 | 3.0 | 7.0 | 0.00 | 0.14 | 0.01 | 57 | 1012.6 |
| 20260904205523 | 69 | 267 | 3.0 | 10.0 | 0.00 | 0.14 | 0.01 | 56 | 1012.6 |
| 20260904205002 | 69 | 229 | 3.0 | 10.0 | 0.00 | 0.14 | 0.01 | 57 | 1012.6 |
| 20260904204502 | 68 | 230 | 4.0 | 8.0 | 0.00 | 0.14 | 0.01 | 56 | 1012.6 |
| 20260904204002 | 68 | 237 | 3.0 | 8.0 | 0.00 | 0.14 | 0.01 | 58 | 1012.6 |
| 20260904203502 | 68 | 261 | 3.0 | 7.0 | 0.00 | 0.14 | 0.01 | 58 | 1012.6 |
| 20260904203002 | 68 | 305 | 3.0 | 7.0 | 0.00 | 0.14 | 0.01 | 58 | 1012.6 |
| 20260904202502 | 68 | 277 | 3.0 | 7.0 | 0.00 | 0.14 | 0.01 | 57 | 1012.6 |
| 20260904202002 | 68 | 238 | 3.0 | 7.0 | 0.00 | 0.14 | 0.01 | 59 | 1012.6 |
| 20260904201502 | 68 | 252 | 2.0 | 7.0 | 0.00 | 0.14 | 0.01 | 60 | 1012.6 |
| 20260904201023 | 68 | 249 | 3.0 | 9.0 | 0.00 | 0.14 | 0.01 | 58 | 1012.6 |
| 20260904200523 | 68 | 263 | 3.0 | 9.0 | 0.00 | 0.14 | 0.01 | 59 | 1012.6 |
| 20260904200002 | 68 | 294 | 2.0 | 5.0 | 0.00 | 0.14 | 0.01 | 58 | 1012.6 |
| 20260904195502 | 68 | 314 | 2.0 | 5.0 | 0.00 | 0.14 | 0.01 | 59 | 1012.6 |
| 20260904195023 | 68 | 327 | 2.0 | 5.0 | 0.00 | 0.14 | 0.01 | 61 | 1012.6 |
| 20260904194502 | 68 | 323 | 2.0 | 5.0 | 0.00 | 0.14 | 0.01 | 61 | 1012.6 |
| 20260904194002 | 67 | 302 | 1.0 | 5.0 | 0.00 | 0.14 | 0.01 | 61 | 1012.6 |
| 20260904193502 | 67 | 286 | 1.0 | 6.0 | 0.00 | 0.14 | 0.01 | 64 | 1012.6 |
| 20260904193002 | 66 | 252 | 2.0 | 6.0 | 0.00 | 0.14 | 0.01 | 65 | 1012.6 |
| 20260904192502 | 66 | 228 | 2.0 | 8.0 | 0.00 | 0.14 | 0.01 | 65 | 1012.6 |
| 20260904192002 | 66 | 234 | 2.0 | 8.0 | 0.00 | 0.14 | 0.01 | 65 | 1012.6 |
| 20260904191502 | 65 | 230 | 3.0 | 7.0 | 0.00 | 0.14 | 0.01 | 65 | 1012.6 |
| 20260904191002 | 66 | 233 | 3.0 | 7.0 | 0.00 | 0.14 | 0.01 | 64 | 1012.6 |
| 20260904190502 | 66 | 247 | 2.0 | 7.0 | 0.00 | 0.14 | 0.01 | 65 | 1012.6 |
| 20260904190002 | 65 | 248 | 3.0 | 8.0 | 0.00 | 0.14 | 0.01 | 66 | 1012.6 |
| 20260904185523 | 65 | 259 | 2.0 | 8.0 | 0.00 | 0.14 | 0.01 | 66 | 1012.6 |
| 20260904185002 | 65 | 306 | 1.0 | 7.0 | 0.00 | 0.14 | 0.01 | 67 | 1012.6 |
| 20260904184502 | 65 | 260 | 2.0 | 6.0 | 0.00 | 0.14 | 0.01 | 70 | 1012.6 |
| 20260904184002 | 65 | 237 | 2.0 | 6.0 | 0.00 | 0.14 | 0.01 | 71 | 1012.6 |
| 20260904183502 | 64 | 227 | 2.0 | 7.0 | 0.00 | 0.14 | 0.01 | 73 | 1012.6 |
| 20260904183002 | 64 | 232 | 3.0 | 7.0 | 0.00 | 0.14 | 0.01 | 73 | 1012.6 |
| 20260904182502 | 63 | 247 | 2.0 | 7.0 | 0.00 | 0.14 | 0.01 | 73 | 1012.6 |
| 20260904182002 | 63 | 273 | 1.0 | 5.0 | 0.00 | 0.14 | 0.01 | 76 | 1012.6 |
| 20260904181502 | 62 | 244 | 2.0 | 6.0 | 0.00 | 0.14 | 0.01 | 79 | 1012.6 |
| 20260904181002 | 62 | 228 | 2.0 | 6.0 | 0.00 | 0.14 | 0.01 | 82 | 1012.6 |
| 20260904180502 | 62 | 230 | 2.0 | 5.0 | 0.00 | 0.14 | 0.01 | 85 | 1012.6 |
| 20260904180002 | 61 | 233 | 1.0 | 4.0 | 0.00 | 0.14 | 0.01 | 88 | 1012.6 |
| 20260904175502 | 60 | 232 | 1.0 | 4.0 | 0.00 | 0.14 | 0.01 | 89 | 1012.6 |
| 20260904175002 | 60 | 233 | 2.0 | 5.0 | 0.00 | 0.14 | 0.01 | 90 | 1012.6 |
| 20260904174502 | 60 | 233 | 2.0 | 6.0 | 0.00 | 0.14 | 0.01 | 91 | 1012.6 |
| 20260904174002 | 60 | 227 | 1.0 | 6.0 | 0.00 | 0.14 | 0.01 | 93 | 1012.6 |
| 20260904173502 | 59 | 225 | 1.0 | 4.0 | 0.00 | 0.14 | 0.01 | 94 | 1012.6 |
| 20260904173002 | 59 | 231 | 1.0 | 3.0 | 0.00 | 0.14 | 0.01 | 94 | 1012.6 |
| 20260904172502 | 58 | 234 | 1.0 | 3.0 | 0.00 | 0.14 | 0.01 | 95 | 1012.6 |
| 20260904172002 | 58 | 238 | 1.0 | 4.0 | 0.00 | 0.14 | 0.01 | 95 | 1012.6 |
| 20260904171502 | 58 | 239 | 1.0 | 4.0 | 0.00 | 0.14 | 0.01 | 95 | 1012.6 |
| 20260904171023 | 58 | 239 | 1.0 | 4.0 | 0.00 | 0.14 | 0.01 | 95 | 1012.6 |
| 20260904170502 | 58 | 239 | 1.0 | 4.0 | 0.00 | 0.14 | 0.01 | 95 | 1012.6 |
| 20260904170002 | 58 | 236 | 1.0 | 4.0 | 0.00 | 0.14 | 0.01 | 95 | 1012.6 |
| 20260904165502 | 58 | 234 | 1.0 | 4.0 | 0.00 | 0.14 | 0.01 | 95 | 1012.6 |
| 20260904165002 | 58 | 232 | 1.0 | 4.0 | 0.00 | 0.14 | 0.01 | 95 | 1012.6 |
| 20260904164502 | 58 | 231 | 1.0 | 4.0 | 0.00 | 0.14 | 0.01 | 95 | 1012.6 |
| 20260904164002 | 58 | 230 | 1.0 | 3.0 | 0.00 | 0.14 | 0.01 | 96 | 1012.6 |
| 20260904163502 | 58 | 229 | 1.0 | 3.0 | 0.00 | 0.14 | 0.01 | 96 | 1012.6 |
| 20260904163002 | 58 | 228 | 1.0 | 3.0 | 0.00 | 0.14 | 0.01 | 96 | 1012.6 |
| 20260904162523 | 58 | 229 | 1.0 | 3.0 | 0.00 | 0.14 | 0.01 | 96 | 1012.6 |
| 20260904162002 | 58 | 229 | 1.0 | 3.0 | 0.00 | 0.14 | 0.01 | 96 | 1012.6 |
| 20260904161502 | 58 | 229 | 1.0 | 3.0 | 0.00 | 0.14 | 0.01 | 96 | 1012.6 |
| 20260904161002 | 58 | 225 | 1.0 | 4.0 | 0.00 | 0.14 | 0.01 | 96 | 1012.6 |
| 20260904160502 | 58 | 208 | 2.0 | 4.0 | 0.00 | 0.14 | 0.01 | 96 | 1012.6 |
| 20260904160023 | 58 | 188 | 2.0 | 5.0 | 0.00 | 0.14 | 0.01 | 96 | 1012.6 |
| 20260904155502 | 58 | 175 | 2.0 | 5.0 | 0.00 | 0.14 | 0.01 | 96 | 1012.6 |
| 20260904155002 | 58 | 165 | 2.0 | 5.0 | 0.00 | 0.14 | 0.01 | 96 | 1012.6 |
| 20260904154523 | 58 | 164 | 2.0 | 5.0 | 0.00 | 0.14 | 0.01 | 96 | 1012.6 |
| 20260904154002 | 58 | 164 | 2.0 | 6.0 | 0.00 | 0.14 | 0.01 | 96 | 1012.6 |
| 20260904153502 | 58 | 168 | 2.0 | 6.0 | 0.00 | 0.14 | 0.01 | 96 | 1012.6 |
| 20260904153002 | 58 | 175 | 2.0 | 5.0 | 0.00 | 0.14 | 0.01 | 96 | 1012.6 |
| 20260904152502 | 57 | 183 | 2.0 | 4.0 | 0.00 | 0.14 | 0.01 | 96 | 1012.6 |
| 20260904152002 | 57 | 189 | 2.0 | 4.0 | 0.00 | 0.14 | 0.01 | 96 | 1012.6 |
| 20260904151502 | 57 | 195 | 2.0 | 4.0 | 0.00 | 0.14 | 0.01 | 96 | 1012.6 |
| 20260904151002 | 57 | 196 | 2.0 | 4.0 | 0.00 | 0.14 | 0.01 | 96 | 1012.6 |
| 20260904150502 | 57 | 197 | 2.0 | 4.0 | 0.00 | 0.14 | 0.01 | 96 | 1012.6 |
| 20260904150002 | 57 | 197 | 2.0 | 4.0 | 0.00 | 0.14 | 0.01 | 96 | 1012.6 |
| 20260904145502 | 57 | 198 | 1.0 | 4.0 | 0.00 | 0.14 | 0.01 | 96 | 1012.6 |
| 20260904145002 | 57 | 198 | 2.0 | 4.0 | 0.00 | 0.14 | 0.01 | 96 | 1012.6 |
| 20260904144502 | 57 | 196 | 1.0 | 5.0 | 0.00 | 0.14 | 0.01 | 96 | 1012.6 |
| 20260904144002 | 57 | 197 | 1.0 | 5.0 | 0.00 | 0.14 | 0.01 | 96 | 1012.6 |
| 20260904143502 | 57 | 208 | 1.0 | 5.0 | 0.00 | 0.14 | 0.01 | 96 | 1012.6 |
| 20260904143002 | 56 | 210 | 1.0 | 5.0 | 0.00 | 0.14 | 0.01 | 96 | 1012.6 |
| 20260904142502 | 56 | 211 | 1.0 | 3.0 | 0.00 | 0.14 | 0.01 | 96 | 1012.6 |
| 20260904142002 | 56 | 211 | 1.0 | 3.0 | 0.00 | 0.14 | 0.01 | 95 | 1012.6 |
| 20260904141502 | 56 | 213 | 2.0 | 3.0 | 0.00 | 0.14 | 0.01 | 95 | 1012.6 |
| 20260904141002 | 56 | 216 | 2.0 | 3.0 | 0.00 | 0.14 | 0.01 | 95 | 1012.6 |
| 20260904140502 | 56 | 218 | 1.0 | 4.0 | 0.00 | 0.14 | 0.01 | 95 | 1012.6 |
| 20260904140023 | 56 | 220 | 1.0 | 4.0 | 0.00 | 0.14 | 0.01 | 95 | 1012.6 |
| 20260904135502 | 56 | 221 | 1.0 | 3.0 | 0.00 | 0.14 | 0.01 | 96 | 1012.6 |
| 20260904135002 | 56 | 223 | 1.0 | 4.0 | 0.00 | 0.14 | 0.01 | 96 | 1012.6 |
| 20260904134502 | 56 | 225 | 1.0 | 4.0 | 0.00 | 0.14 | 0.01 | 96 | 1012.6 |
| 20260904134002 | 56 | 228 | 1.0 | 4.0 | 0.00 | 0.14 | 0.01 | 95 | 1012.6 |
| 20260904133502 | 57 | 231 | 1.0 | 4.0 | 0.00 | 0.14 | 0.01 | 95 | 1012.6 |
| 20260904133002 | 57 | 232 | 1.0 | 3.0 | 0.00 | 0.14 | 0.01 | 95 | 1012.6 |
| 20260904132502 | 57 | 233 | 1.0 | 3.0 | 0.00 | 0.14 | 0.01 | 95 | 1012.6 |
| 20260904132002 | 57 | 234 | 0.0 | 2.0 | 0.00 | 0.14 | 0.01 | 96 | 1012.6 |
| 20260904131502 | 57 | 234 | 1.0 | 2.0 | 0.00 | 0.14 | 0.01 | 96 | 1012.6 |
| 20260904131002 | 57 | 234 | 1.0 | 2.0 | 0.00 | 0.14 | 0.01 | 96 | 1012.6 |
| 20260904130502 | 57 | 234 | 0.0 | 2.0 | 0.00 | 0.14 | 0.01 | 95 | 1012.6 |
| 20260904130002 | 57 | 234 | 0.0 | 1.0 | 0.00 | 0.14 | 0.01 | 95 | 1012.6 |
| 20260904125502 | 57 | 234 | 0.0 | 2.0 | 0.00 | 0.14 | 0.01 | 95 | 1012.6 |
| 20260904125023 | 57 | 234 | 1.0 | 2.0 | 0.00 | 0.14 | 0.01 | 95 | 1012.6 |
| 20260904124502 | 57 | 234 | 0.0 | 2.0 | 0.00 | 0.14 | 0.01 | 95 | 1012.6 |
| 20260904124002 | 57 | 235 | 1.0 | 3.0 | 0.00 | 0.14 | 0.01 | 95 | 1012.6 |
| 20260904123502 | 57 | 235 | 1.0 | 3.0 | 0.00 | 0.14 | 0.01 | 95 | 1012.6 |
| 20260904123023 | 57 | 236 | 1.0 | 2.0 | 0.00 | 0.14 | 0.01 | 95 | 1012.6 |
| 20260904122523 | 57 | 236 | 1.0 | 2.0 | 0.00 | 0.14 | 0.01 | 95 | 1012.6 |
| 20260904122002 | 57 | 236 | 1.0 | 2.0 | 0.00 | 0.14 | 0.01 | 95 | 1012.6 |
| 20260904121502 | 57 | 237 | 1.0 | 2.0 | 0.00 | 0.14 | 0.01 | 95 | 1012.6 |
| 20260904121002 | 56 | 237 | 0.0 | 2.0 | 0.00 | 0.14 | 0.01 | 95 | 1012.6 |
| 20260904120502 | 57 | 237 | 1.0 | 2.0 | 0.00 | 0.14 | 0.01 | 95 | 1012.6 |
| 20260904120003 | 57 | 237 | 1.0 | 2.0 | 0.00 | 0.14 | 0.01 | 95 | 1012.6 |
| 20260904115503 | 57 | 237 | 0.0 | 2.0 | 0.00 | 0.14 | 0.01 | 95 | 1012.6 |
| 20260904115002 | 57 | 237 | 0.0 | 1.0 | 0.00 | 0.14 | 0.01 | 95 | 1012.6 |
| 20260904114502 | 57 | 236 | 1.0 | 4.0 | 0.00 | 0.14 | 0.01 | 95 | 1012.6 |
| 20260904114002 | 57 | 236 | 1.0 | 4.0 | 0.00 | 0.14 | 0.01 | 95 | 1012.5 |
| 20260904113503 | 57 | 235 | 1.0 | 3.0 | 0.00 | 0.14 | 0.01 | 95 | 1012.5 |
| 20260904113003 | 57 | 232 | 1.0 | 4.0 | 0.00 | 0.14 | 0.01 | 95 | 1012.5 |
| 20260904112502 | 57 | 227 | 1.0 | 4.0 | 0.00 | 0.14 | 0.01 | 95 | 1012.5 |
| 20260904112002 | 57 | 218 | 1.0 | 5.0 | 0.00 | 0.14 | 0.01 | 95 | 1012.5 |
| 20260904111502 | 57 | 221 | 1.0 | 5.0 | 0.00 | 0.14 | 0.01 | 95 | 1012.5 |
| 20260904111002 | 57 | 249 | 1.0 | 3.0 | 0.00 | 0.14 | 0.01 | 95 | 1012.5 |
| 20260904110502 | 57 | 257 | 1.0 | 2.0 | 0.00 | 0.14 | 0.01 | 95 | 1012.5 |
| 20260904110024 | 57 | 257 | 0.0 | 2.0 | 0.00 | 0.14 | 0.01 | 95 | 1012.3 |
| 20260904105502 | 57 | 257 | 0.0 | 3.0 | 0.00 | 0.14 | 0.01 | 95 | 1012.3 |
| 20260904105002 | 57 | 255 | 1.0 | 4.0 | 0.00 | 0.14 | 0.01 | 95 | 1012.3 |
| 20260904104502 | 57 | 254 | 1.0 | 5.0 | 0.00 | 0.14 | 0.01 | 95 | 1012.3 |
| 20260904104002 | 57 | 256 | 1.0 | 5.0 | 0.00 | 0.14 | 0.01 | 95 | 1012.3 |
| 20260904103502 | 57 | 247 | 1.0 | 5.0 | 0.00 | 0.14 | 0.01 | 95 | 1012.3 |
| 20260904103002 | 57 | 249 | 2.0 | 7.0 | 0.00 | 0.14 | 0.01 | 95 | 1012.3 |
| 20260904102523 | 58 | 267 | 2.0 | 7.0 | 0.00 | 0.14 | 0.01 | 95 | 1012.3 |
| 20260904102002 | 58 | 286 | 1.0 | 4.0 | 0.00 | 0.14 | 0.01 | 95 | 1012.3 |
| 20260904101502 | 58 | 275 | 0.0 | 2.0 | 0.00 | 0.14 | 0.01 | 95 | 1012.3 |
| 20260904101002 | 58 | 276 | 1.0 | 3.0 | 0.00 | 0.14 | 0.01 | 95 | 1012.3 |
| 20260904100502 | 58 | 279 | 1.0 | 3.0 | 0.00 | 0.14 | 0.01 | 95 | 1012.3 |
| 20260904100002 | 58 | 294 | 0.0 | 3.0 | 0.00 | 0.14 | 0.01 | 95 | 1012.3 |
| 20260904095502 | 58 | 303 | 0.0 | 2.0 | 0.00 | 0.14 | 0.01 | 95 | 1012.3 |
| 20260904095023 | 58 | 323 | 1.0 | 4.0 | 0.00 | 0.14 | 0.01 | 95 | 1012.3 |
| 20260904094523 | 58 | 335 | 1.0 | 5.0 | 0.00 | 0.14 | 0.01 | 95 | 1012.3 |
| 20260904094023 | 58 | 340 | 0.0 | 5.0 | 0.00 | 0.14 | 0.01 | 95 | 1012.1 |
| 20260904093503 | 58 | 323 | 0.0 | 1.0 | 0.00 | 0.14 | 0.01 | 95 | 1012.1 |
| 20260904093023 | 58 | 323 | 0.0 | 3.0 | 0.00 | 0.14 | 0.01 | 95 | 1012.1 |
| 20260904092502 | 58 | 322 | 1.0 | 3.0 | 0.00 | 0.14 | 0.01 | 95 | 1012.1 |
| 20260904092023 | 58 | 313 | 1.0 | 5.0 | 0.00 | 0.14 | 0.01 | 95 | 1012.1 |
| 20260904091524 | 58 | 318 | 1.0 | 5.0 | 0.00 | 0.14 | 0.01 | 95 | 1012.1 |
| 20260904091002 | 58 | 303 | 1.0 | 4.0 | 0.00 | 0.14 | 0.01 | 95 | 1012.1 |
| 20260904090502 | 58 | 270 | 1.0 | 6.0 | 0.00 | 0.14 | 0.01 | 95 | 1012.1 |
| 20260904090002 | 58 | 255 | 2.0 | 7.0 | 0.00 | 0.14 | 0.01 | 95 | 1012.1 |
| 20260904085502 | 58 | 248 | 3.0 | 7.0 | 0.00 | 0.14 | 0.01 | 95 | 1012.1 |
| 20260904085023 | 59 | 252 | 2.0 | 7.0 | 0.00 | 0.14 | 0.01 | 95 | 1012.1 |
| 20260904084502 | 59 | 268 | 2.0 | 8.0 | 0.00 | 0.14 | 0.01 | 95 | 1012.1 |
| 20260904084023 | 59 | 264 | 2.0 | 8.0 | 0.00 | 0.14 | 0.01 | 94 | 1012.0 |
| 20260904083523 | 59 | 258 | 1.0 | 5.0 | 0.00 | 0.14 | 0.01 | 95 | 1012.0 |
| 20260904083002 | 59 | 251 | 1.0 | 4.0 | 0.01 | 0.14 | 0.01 | 94 | 1012.0 |
| 20260904082503 | 59 | 248 | 1.0 | 4.0 | 0.01 | 0.14 | 0.01 | 95 | 1012.0 |
| 20260904082003 | 59 | 252 | 1.0 | 4.0 | 0.01 | 0.14 | 0.01 | 95 | 1012.0 |
| 20260904081502 | 59 | 250 | 1.0 | 4.0 | 0.01 | 0.14 | 0.01 | 95 | 1012.0 |
| 20260904081003 | 59 | 256 | 1.0 | 4.0 | 0.01 | 0.14 | 0.01 | 95 | 1012.0 |
| 20260904080502 | 59 | 270 | 1.0 | 4.0 | 0.01 | 0.14 | 0.01 | 94 | 1012.0 |
| 20260904080002 | 59 | 285 | 1.0 | 3.0 | 0.01 | 0.14 | 0.01 | 94 | 1012.0 |
| 20260904075502 | 59 | 323 | 1.0 | 3.0 | 0.01 | 0.14 | 0.01 | 94 | 1012.0 |
| 20260904075003 | 59 | 355 | 0.0 | 2.0 | 0.01 | 0.14 | 0.01 | 94 | 1012.0 |
| 20260904074502 | 58 | 355 | 0.0 | 1.0 | 0.01 | 0.14 | 0.01 | 94 | 1012.0 |
| 20260904074002 | 58 | 355 | 0.0 | 1.0 | 0.01 | 0.14 | 0.01 | 94 | 1013.6 |
| 20260904073502 | 58 | 355 | 0.0 | 2.0 | 0.01 | 0.14 | 0.01 | 94 | 1013.6 |
| 20260904073002 | 58 | 355 | 0.0 | 2.0 | 0.00 | 0.13 | 0.00 | 94 | 1013.6 |
| 20260904072502 | 58 | 355 | 0.0 | 2.0 | 0.00 | 0.13 | 0.00 | 94 | 1013.6 |
| 20260904072002 | 58 | 355 | 0.0 | 2.0 | 0.01 | 0.13 | 0.00 | 94 | 1013.6 |
| 20260904071502 | 58 | 355 | 0.0 | 1.0 | 0.02 | 0.13 | 0.00 | 94 | 1013.6 |
| 20260904071002 | 58 | 355 | 0.0 | 1.0 | 0.02 | 0.13 | 0.00 | 94 | 1013.6 |
| 20260904070503 | 58 | 0 | 0.0 | 0.0 | 0.02 | 0.13 | 0.00 | 94 | 1013.6 |
| 20260904070030 | 58 | 355 | 0.0 | 3.0 | 0.03 | 0.13 | 0.00 | 94 | 1013.6 |
| 20260904065502 | 58 | 355 | 1.0 | 3.0 | 0.04 | 0.13 | 0.13 | 94 | 1013.6 |
| 20260904065002 | 58 | 352 | 1.0 | 4.0 | 0.05 | 0.13 | 0.13 | 94 | 1013.6 |
| 20260904064502 | 58 | 354 | 2.0 | 6.0 | 0.05 | 0.13 | 0.13 | 94 | 1013.6 |
| 20260904064002 | 58 | 350 | 2.0 | 6.0 | 0.06 | 0.13 | 0.13 | 94 | 1013.6 |
| 20260904063523 | 58 | 340 | 2.0 | 6.0 | 0.06 | 0.13 | 0.13 | 93 | 1013.6 |
| 20260904063003 | 59 | 335 | 2.0 | 10.0 | 0.07 | 0.13 | 0.13 | 94 | 1013.6 |
| 20260904062503 | 59 | 327 | 2.0 | 10.0 | 0.07 | 0.13 | 0.13 | 94 | 1013.6 |
| 20260904062002 | 59 | 320 | 3.0 | 9.0 | 0.07 | 0.12 | 0.12 | 94 | 1013.6 |
| 20260904061502 | 59 | 322 | 2.0 | 8.0 | 0.06 | 0.11 | 0.11 | 93 | 1013.6 |
| 20260904061002 | 59 | 330 | 2.0 | 6.0 | 0.06 | 0.11 | 0.11 | 93 | 1013.6 |
| 20260904060503 | 60 | 314 | 2.0 | 8.0 | 0.06 | 0.11 | 0.11 | 93 | 1013.6 |
| 20260904060002 | 60 | 283 | 2.0 | 8.0 | 0.05 | 0.10 | 0.10 | 93 | 1013.6 |
| 20260904055524 | 60 | 283 | 1.0 | 7.0 | 0.04 | 0.09 | 0.09 | 93 | 1013.6 |
| 20260904055002 | 60 | 266 | 2.0 | 6.0 | 0.04 | 0.08 | 0.08 | 93 | 1013.6 |
| 20260904054503 | 60 | 251 | 2.0 | 9.0 | 0.04 | 0.08 | 0.08 | 93 | 1013.6 |
| 20260904054003 | 60 | 247 | 2.0 | 9.0 | 0.03 | 0.07 | 0.07 | 93 | 1013.6 |
| 20260904053524 | 60 | 256 | 2.0 | 7.0 | 0.03 | 0.07 | 0.07 | 93 | 1013.6 |
| 20260904053002 | 61 | 278 | 1.0 | 5.0 | 0.02 | 0.06 | 0.06 | 93 | 1013.6 |
| 20260904052502 | 61 | 264 | 2.0 | 4.0 | 0.02 | 0.06 | 0.06 | 93 | 1013.6 |
| 20260904052003 | 61 | 255 | 2.0 | 4.0 | 0.01 | 0.05 | 0.05 | 92 | 1013.6 |
| 20260904051503 | 61 | 256 | 1.0 | 4.0 | 0.01 | 0.05 | 0.05 | 93 | 1013.6 |
| 20260904051024 | 61 | 257 | 0.0 | 4.0 | 0.01 | 0.05 | 0.05 | 92 | 1013.6 |
| 20260904050503 | 61 | 266 | 0.0 | 4.0 | 0.02 | 0.05 | 0.05 | 92 | 1013.6 |
| 20260904050003 | 61 | 274 | 0.0 | 4.0 | 0.02 | 0.05 | 0.05 | 92 | 1013.6 |
| 20260904045524 | 62 | 300 | 0.0 | 4.0 | 0.03 | 0.05 | 0.05 | 92 | 1013.6 |
| 20260904045024 | 62 | 267 | 1.0 | 4.0 | 0.02 | 0.04 | 0.04 | 92 | 1013.6 |
| 20260904044502 | 62 | 251 | 1.0 | 4.0 | 0.03 | 0.04 | 0.04 | 92 | 1013.6 |
| 20260904044003 | 62 | 257 | 1.0 | 4.0 | 0.04 | 0.04 | 0.04 | 92 | 1013.6 |
| 20260904043503 | 62 | 269 | 1.0 | 3.0 | 0.04 | 0.04 | 0.04 | 92 | 1013.6 |
| 20260904043003 | 62 | 282 | 1.0 | 3.0 | 0.04 | 0.04 | 0.04 | 92 | 1013.6 |
| 20260904042523 | 62 | 291 | 1.0 | 3.0 | 0.04 | 0.04 | 0.04 | 91 | 1013.6 |
| 20260904042002 | 62 | 294 | 0.0 | 2.0 | 0.04 | 0.04 | 0.04 | 91 | 1013.6 |
| 20260904041524 | 62 | 295 | 0.0 | 2.0 | 0.04 | 0.04 | 0.04 | 91 | 1013.6 |
| 20260904041002 | 62 | 293 | 0.0 | 3.0 | 0.04 | 0.04 | 0.04 | 91 | 1013.6 |
| 20260904040524 | 62 | 290 | 0.0 | 3.0 | 0.03 | 0.03 | 0.03 | 91 | 1013.6 |
| 20260904040003 | 63 | 307 | 0.0 | 4.0 | 0.03 | 0.03 | 0.03 | 91 | 1013.6 |
| 20260904035502 | 63 | 293 | 1.0 | 4.0 | 0.02 | 0.02 | 0.02 | 91 | 1013.6 |
| 20260904035002 | 63 | 273 | 1.0 | 5.0 | 0.02 | 0.02 | 0.02 | 91 | 1013.6 |
| 20260904034502 | 63 | 261 | 1.0 | 5.0 | 0.01 | 0.01 | 0.01 | 90 | 1013.6 |
| 20260904034002 | 63 | 247 | 1.0 | 6.0 | 0.00 | 0.00 | 0.00 | 90 | 1013.6 |
| 20260904033503 | 63 | 230 | 1.0 | 6.0 | 0.00 | 0.00 | 0.00 | 90 | 1013.6 |
| 20260904033002 | 63 | 201 | 2.0 | 6.0 | 0.00 | 0.00 | 0.00 | 90 | 1013.6 |
| 20260904032503 | 63 | 202 | 2.0 | 8.0 | 0.00 | 0.00 | 0.00 | 90 | 1013.6 |
| 20260904032003 | 64 | 222 | 2.0 | 8.0 | 0.00 | 0.00 | 0.00 | 89 | 1013.6 |
| 20260904031503 | 64 | 242 | 2.0 | 7.0 | 0.00 | 0.00 | 0.00 | 89 | 1013.6 |
| 20260904031003 | 64 | 242 | 3.0 | 8.0 | 0.00 | 0.00 | 0.00 | 89 | 1013.6 |
| 20260904030503 | 64 | 232 | 3.0 | 8.0 | 0.00 | 0.00 | 0.00 | 88 | 1013.6 |
| 20260904030024 | 64 | 205 | 3.0 | 6.0 | 0.00 | 0.00 | 0.00 | 88 | 1013.6 |
| 20260904025503 | 64 | 209 | 3.0 | 7.0 | 0.00 | 0.00 | 0.00 | 88 | 1013.6 |
| 20260904025002 | 64 | 232 | 2.0 | 7.0 | 0.00 | 0.00 | 0.00 | 88 | 1013.6 |
| 20260904024503 | 64 | 239 | 1.0 | 4.0 | 0.00 | 0.00 | 0.00 | 88 | 1013.6 |
| 20260904024003 | 64 | 240 | 1.0 | 4.0 | 0.00 | 0.00 | 0.00 | 88 | 1013.6 |
| 20260904023503 | 64 | 244 | 2.0 | 4.0 | 0.00 | 0.00 | 0.00 | 87 | 1013.6 |
| 20260904023003 | 64 | 251 | 3.0 | 8.0 | 0.00 | 0.00 | 0.00 | 87 | 1013.6 |
| 20260904022503 | 64 | 257 | 2.0 | 8.0 | 0.00 | 0.00 | 0.00 | 87 | 1013.6 |
| 20260904022003 | 64 | 265 | 1.0 | 6.0 | 0.00 | 0.00 | 0.00 | 87 | 1013.6 |
| 20260904021503 | 64 | 272 | 1.0 | 4.0 | 0.00 | 0.00 | 0.00 | 87 | 1013.6 |